Date String (YYYY-MM-DD hh:mm:ss) UTC,Instrument flags,Ambient pressure (hPa),Sample flow (lpm),Bypass flow (lpm),Sample temperature (°C),Ambient temperature (°C),ASC tube jacket temperature (°C),LED temperature (°C),Box temperature (°C),Sample RH (%),Span deviation,Mass concentration (μg/m³),Mass concentration (μg/m³),Mass concentration (μg/m³)
DateTimeUTC,F1_M11,P_M11,Q1_M11,Q2_M11,T1_M11,T2_M11,T3_M11,T4_M11,T5_M11,U1_M11,ZSPAN_M11,X0_M11,X2_M11,X1_M11
2022-09-30 09:00:00,,0826.8,5.00,0.00,30.6,29.0,00.0,39.4,32.4,15.7,0000.0,0005.46,0003.37,0003.00
2022-09-30 09:01:00,,0826.8,5.01,0.00,30.6,29.0,00.0,39.4,32.4,15.8,0000.0,0005.54,0003.36,0003.00
2022-09-30 09:02:00,,0826.8,5.01,0.00,30.6,29.0,00.0,39.4,32.4,15.8,0000.0,0005.67,0003.37,0003.00
2022-09-30 09:03:00,,0826.8,4.99,0.00,30.6,29.0,00.0,39.4,32.4,15.8,0000.0,0005.67,0003.38,0003.01
2022-09-30 09:04:00,,0826.8,5.01,0.00,30.6,29.0,00.0,39.4,32.3,15.8,0000.0,0005.68,0003.39,0003.00
2022-09-30 09:05:00,,0826.8,5.00,0.00,30.6,29.0,00.0,39.4,32.4,15.8,0000.0,0005.68,0003.38,0002.99
2022-09-30 09:06:00,,0826.8,5.00,0.00,30.6,29.0,00.0,39.4,32.4,15.8,0000.0,0005.62,0003.37,0002.98
2022-09-30 09:07:00,,0826.7,5.01,0.00,30.6,29.0,00.0,39.4,32.4,15.8,0000.0,0005.83,0003.37,0002.98
2022-09-30 09:08:00,,0826.7,5.01,0.00,30.6,29.0,00.0,39.4,32.4,15.8,0000.0,0006.93,0003.36,0002.97
2022-09-30 09:09:00,,0826.8,4.99,0.00,30.6,29.0,00.0,39.4,32.3,15.8,0000.0,0007.07,0003.35,0002.97
2022-09-30 09:10:00,,0826.7,5.01,0.00,30.6,29.0,00.0,39.4,32.3,15.8,0000.0,0006.82,0003.33,0002.96
2022-09-30 09:11:00,,0826.7,5.00,0.00,30.6,29.0,00.0,39.4,32.3,15.8,0000.0,0006.74,0003.35,0002.96
2022-09-30 09:12:00,,0826.8,5.00,0.00,30.6,29.0,00.0,39.4,32.4,15.7,0000.0,0006.66,0003.35,0002.97
2022-09-30 09:13:00,,0826.7,5.00,0.00,30.6,29.0,00.0,39.4,32.4,15.8,0000.0,0006.65,0003.36,0002.97
2022-09-30 09:14:00,,0826.7,5.01,0.00,30.6,29.0,00.0,39.4,32.4,15.7,0000.0,0006.36,0003.33,0002.96
2022-09-30 09:15:00,,0826.7,4.99,0.00,30.6,29.0,00.0,39.4,32.3,15.7,0000.0,0006.44,0003.35,0002.97
2022-09-30 09:16:00,,0826.7,4.99,0.00,30.6,29.0,00.0,39.4,32.3,15.7,0000.0,0006.66,0003.34,0002.97
2022-09-30 09:17:00,,0826.7,5.00,0.00,30.6,29.0,00.0,39.4,32.3,15.7,0000.0,0006.92,0003.35,0002.97
2022-09-30 09:18:00,,0826.7,5.01,0.00,30.6,29.0,00.0,39.4,32.3,15.6,0000.0,0006.82,0003.35,0002.98
2022-09-30 09:19:00,,0826.7,4.98,0.00,30.6,29.0,00.0,39.4,32.3,15.6,0000.0,0005.64,0003.35,0002.98
2022-09-30 09:20:00,,0826.7,5.01,0.00,30.6,29.0,00.0,39.4,32.3,15.6,0000.0,0005.39,0003.36,0002.99
2022-09-30 09:21:00,,0826.7,5.00,0.00,30.6,29.0,00.0,39.4,32.3,15.5,0000.0,0005.40,0003.36,0003.00
2022-09-30 09:22:00,,0826.7,4.99,0.00,30.6,29.1,00.0,39.4,32.3,15.5,0000.0,0005.33,0003.35,0003.00
2022-09-30 09:23:00,,0826.7,5.00,0.00,30.6,29.0,00.0,39.4,32.3,15.4,0000.0,0005.24,0003.32,0002.98
2022-09-30 09:24:00,,0826.7,5.00,0.00,30.6,29.0,00.0,39.4,32.3,15.5,0000.0,0005.11,0003.29,0002.96
2022-09-30 09:25:00,,0826.7,4.99,0.00,30.6,29.1,00.0,39.4,32.3,15.4,0000.0,0005.17,0003.31,0002.97
2022-09-30 09:26:00,,0826.7,4.99,0.00,30.6,29.1,00.0,39.4,32.3,15.4,0000.0,0005.04,0003.29,0002.96
2022-09-30 09:27:00,,0826.7,5.01,0.00,30.6,29.0,00.0,39.4,32.3,15.4,0000.0,0004.94,0003.29,0002.96
2022-09-30 09:28:00,,0826.7,5.01,0.00,30.6,29.0,00.0,39.4,32.3,15.4,0000.0,0004.86,0003.28,0002.95
2022-09-30 09:29:00,,0826.7,4.99,0.00,30.6,29.0,00.0,39.4,32.3,15.4,0000.0,0004.70,0003.30,0002.96
2022-09-30 09:30:00,,0826.7,5.00,0.00,30.6,29.0,00.0,39.4,32.3,15.4,0000.0,0004.54,0003.28,0002.95
2022-09-30 09:31:00,,0826.7,5.00,0.00,30.6,29.0,00.0,39.4,32.3,15.4,0000.0,0004.54,0003.26,0002.94
2022-09-30 09:32:00,,0826.7,5.00,0.00,30.6,29.0,00.0,39.4,32.3,15.4,0000.0,0004.52,0003.25,0002.93
2022-09-30 09:33:00,,0826.7,4.98,0.00,30.6,29.0,00.0,39.4,32.4,15.4,0000.0,0004.53,0003.24,0002.92
2022-09-30 09:34:00,,0826.7,5.00,0.00,30.6,29.0,00.0,39.4,32.4,15.4,0000.0,0004.54,0003.24,0002.91
2022-09-30 09:35:00,,0826.7,5.00,0.00,30.6,29.0,00.0,39.4,32.4,15.4,0000.0,0004.54,0003.24,0002.92
2022-09-30 09:36:00,,0826.7,5.00,0.00,30.6,29.0,00.0,39.4,32.3,15.4,0000.0,0004.54,0003.26,0002.93
2022-09-30 09:37:00,,0826.7,5.00,0.00,30.6,29.0,00.0,39.4,32.3,15.5,0000.0,0004.55,0003.25,0002.93
2022-09-30 09:38:00,,0826.7,5.01,0.00,30.5,29.0,00.0,39.4,32.3,15.4,0000.0,0005.02,0003.27,0002.93
2022-09-30 09:39:00,,0826.7,5.01,0.00,30.6,29.0,00.0,39.4,32.3,15.4,0000.0,0005.10,0003.27,0002.92
2022-09-30 09:40:00,,0826.7,4.99,0.00,30.6,29.0,00.0,39.4,32.3,15.4,0000.0,0005.11,0003.26,0002.92
2022-09-30 09:41:00,,0826.7,4.99,0.00,30.6,29.0,00.0,39.4,32.3,15.4,0000.0,0005.18,0003.29,0002.92
2022-09-30 09:42:00,,0826.7,5.00,0.00,30.6,29.0,00.0,39.4,32.3,15.4,0000.0,0005.23,0003.30,0002.93
2022-09-30 09:43:00,,0826.8,5.00,0.00,30.6,29.0,00.0,39.4,32.3,15.3,0000.0,0005.39,0003.32,0002.94
2022-09-30 09:44:00,,0826.8,5.01,0.00,30.5,29.0,00.0,39.4,32.3,15.5,0000.0,0005.48,0003.34,0002.94
2022-09-30 09:45:00,,0826.8,4.99,0.00,30.5,29.0,00.0,39.4,32.3,15.4,0000.0,0005.48,0003.35,0002.96
2022-09-30 09:46:00,,0826.7,5.01,0.00,30.6,29.0,00.0,39.3,32.3,15.4,0000.0,0005.57,0003.37,0002.98
2022-09-30 09:47:00,,0827.0,5.01,0.00,30.6,29.0,00.0,39.3,32.3,15.4,0000.0,0005.61,0003.36,0002.97
2022-09-30 09:48:00,,0826.7,4.99,0.00,30.5,29.0,00.0,39.4,32.3,15.4,0000.0,0005.61,0003.35,0002.96
2022-09-30 09:49:00,,0826.7,5.00,0.00,30.5,29.0,00.0,39.4,32.3,15.4,0000.0,0005.32,0003.35,0002.97
2022-09-30 09:50:00,,0826.7,5.00,0.00,30.5,29.0,00.0,39.4,32.3,15.3,0000.0,0004.99,0003.35,0002.98
2022-09-30 09:51:00,,0826.7,4.99,0.00,30.5,29.0,00.0,39.4,32.3,15.3,0000.0,0005.02,0003.35,0002.99
2022-09-30 09:52:00,,0826.7,5.00,0.00,30.5,29.0,00.0,39.3,32.3,15.3,0000.0,0004.92,0003.32,0002.99
2022-09-30 09:53:00,,0826.7,5.00,0.00,30.5,29.0,00.0,39.3,32.3,15.3,0000.0,0004.79,0003.31,0002.98
2022-09-30 09:54:00,,0826.7,5.00,0.00,30.5,29.0,00.0,39.3,32.3,15.3,0000.0,0004.58,0003.28,0002.96
2022-09-30 09:55:00,,0826.7,4.99,0.00,30.5,29.0,00.0,39.3,32.3,15.3,0000.0,0004.47,0003.26,0002.96
2022-09-30 09:56:00,,0826.7,5.00,0.00,30.5,29.0,00.0,39.4,32.3,15.3,0000.0,0004.58,0003.25,0002.93
2022-09-30 09:57:00,,0826.7,5.00,0.00,30.5,29.0,00.0,39.3,32.3,15.4,0000.0,0004.58,0003.24,0002.93
2022-09-30 09:58:00,,0826.7,5.01,0.00,30.5,29.0,00.0,39.3,32.3,15.4,0000.0,0004.53,0003.23,0002.94
2022-09-30 09:59:00,,0826.7,4.99,0.00,30.5,29.0,00.0,39.3,32.3,15.5,0000.0,0004.61,0003.25,0002.96
